Regional Weather Roundup
Issued by NWS Newport/Morehead, NC

Current Version | Previous Version | Graphics & Text | Print | Product List | Glossary Off
Versions: 1 2 3 4 5 6 7 8 9 10 11 12 13 14 15 16 17 18 19 20 21 22 23 24 25 26 27 28 29 30 31 32 33 34 35 36 37 38 39 40 41 42 43 44 45 46 47 48 49 50

000
ASUS42 KMHX 280913
RWRMHX
WEATHER ROUNDUP FOR EASTERN NORTH CAROLINA
NATIONAL WEATHER SERVICE NEWPORT/MOREHEAD CITY NC
500 AM EDT TUE MAR 28 2017

NOTE: "FAIR" INDICATES FEW OR NO CLOUDS BELOW 12,000 FEET
WITH NO SIGNIFICANT WEATHER AND/OR OBSTRUCTIONS TO VISIBILITY

NCZ015>017-031-032-045>047-102-103-281000-
NORTH COAST

CITY           SKY/WX    TMP DP  RH WIND       PRES   REMARKS
EDENTON        NOT AVBL
ELIZABETH CITY CLEAR     58  55  90 S6        29.96S
KITTY HAWK     NOT AVBL
MANTEO         CLEAR     58  56  91 SW7       29.98S

$$

NCZ045>047-081-094-103-104-281000-
CENTRAL COAST

CITY           SKY/WX    TMP DP  RH WIND       PRES   REMARKS
FRISCO         PTCLDY    68  58  70 SW9       29.97F HAZE

$$

NCZ095-097-098-100-101-281000-
SOUTHERN COAST

CITY           SKY/WX    TMP DP  RH WIND       PRES   REMARKS
BEAUFORT       CLOUDY    65  61  87 SW8       29.98R
CEDAR ISLAND   NOT AVBL
JACKSONVILLE   CLOUDY    63  58  83 CALM      29.97F
PINEY ISLAND   CLOUDY   N/A N/A N/A SW3       29.98R
WILMINGTON     CLOUDY    63  59  87 SW3       29.98S


$$

NCZ011>013-027>030-043-044-078>080-089-090>093-098-281000-
COASTAL PLAIN

CITY           SKY/WX    TMP DP  RH WIND       PRES   REMARKS
AHOSKIE        NOT AVBL
CLINTON        PTCLDY    61  59  92 CALM      29.97F
ELIZABETHTOWN  CLEAR     63  59  87 SW6       29.97S
GOLDSBORO      CLOUDY    62  62 100 S3        29.94F
GREENVILLE     CLOUDY    63  59  88 S6        29.97S
HAVELOCK       CLOUDY    62  57  83 SW3       29.99S
KENANSVILLE    CLOUDY    61  57  88 CALM      29.97S
KINSTON        CLOUDY    63  58  83 SW3       29.97S
NEW BERN       CLOUDY    61  58  90 S3        29.98F
RICHLANDS      CLOUDY    60  57  89 S5        29.98F
ROCKY MOUNT    PTCLDY    61  57  87 S9        29.94F
WASHINGTON     CLOUDY    60  56  85 S3        29.97S
WHITEVILLE     MOCLDY    61  58  91 SW3       29.98S

$$

AMZ130-135-150-152-154-156-158-170-250-252-270-ANZ085-086-088-633-658-670-281000-
MARINE OBSERVATIONS

STATION/POSITION TIME  TEMP    WIND        PRES    WAVE   SWELL
                       AIR SEA DIR/SP/G            HT/PER HT/PER
                 (UTC) (F)     (DEG/KT/KT) (MB)    (FT/S) (FT/S)
CHESAPEAKE LIGHT NOT AVBL
64 E VA BEACH    0850   53 49  200/  8/  8 1014.5    4/ 8   3/ 8
DUCK             0842   61 49  190/  7/  8 1014.1
2 E DUCK         0900      50                N/A     3/11   2/11
OREGON INLET     0842   61 59  200/  8/  9 1014.9
13E OREGON INLT  0848      52                N/A     4/ 9   3/ 9
HATTERAS CG      0842   66 62  210/  8/ 11 1014.7
DIAMOND BUOY     0850   71 74  230/ 16/ 19 1015.1    5/ 9   3/ 9
CAPE LOOKOUT     0900   67     220/  6/  8 1015.1
BEAUFORT LAB     0842   64 60  220/  3/  5 1014.3
30 SE NEW RVR IN 0808   67     210/ 10/ 12 1015.2
30 SE NEW RVR IN 0843      64                N/A     5/10   2/11
27 SE WRIGHTSVLE 0808   69 66  210/ 12/ 16 1014.0
5 SE WRIGHTSVLE  0808   64 60  200/ 12/ 17 1014.8
225 S CAPE HAT   0850   67 72  170/  2/  4 1016.8    5/10   5/10
41 SE CHARLESTON 0850   72 70  200/ 14/ 16 1015.2    5/10   5/10

$$



USA.gov is the U.S. government's official web portal to all federal, state and local government web resources and services.